Weather History for Rawlins, WY

Change the Weather History Date:

Friday, May 10, 2013

  Actual Average Record
Temperature  
Mean Temperature 49 °F 48 °F  
Max Temperature 66 °F 62 °F 78 °F (2004)
Min Temperature 31 °F 33 °F 13 °F (2006)
Degree Days  
Heating Degree Days 16 17  
Month to date heating degree days 206 188  
Since 1 July heating degree days 7685 7907  
Cooling Degree Days 0 0  
Month to date cooling degree days 0 0  
Year to date cooling degree days 0 0  
Moisture  
Dew Point 30 °F    
Average Humidity 56    
Maximum Humidity 92    
Minimum Humidity 20    
Precipitation  
Precipitation T in 0.05 in 0.69 in (2003)
Month to date precipitation 0.10 0.44  
Year to date precipitation 1.69 2.95  
Sea Level Pressure  
Sea Level Pressure 30.18 in    
Wind  
Wind Speed 6 mph (NNE)    
Max Wind Speed 31 mph    
Max Gust Speed 44 mph    
Visibility 10 miles    
Events Rain    
T = Trace of Precipitation, MM = Missing Value Source: NWS Daily Summary

Daily Weather History Graph

Daily Weather History Graph

Search for Another Location

Airport:

Trip Planner

Search our weather history database for the weather conditions in past years. The results will help you decide how hot, cold, wet, or windy it might be!

Date:

Astronomy

May. 10, 2013 Rise Set
Actual Time 5:53 AM MDT 8:17 PM MDT
Civil Twilight 5:22 AM MDT 8:48 PM MDT
Nautical Twilight 4:43 AM MDT 9:27 PM MDT
Astronomical Twilight 4:00 AM MDT 10:10 PM MDT
Moon 6:19 AM MDT (5/10) 9:09 PM MDT (5/10)
Length of Visible Light 15h 26m
Length of Day
14h 23m
New Moon, 1% of the Moon is Illuminated
May 10
New Moon
May 17
First Quarter
May 24
Full
May 31
Last Quarter
Jun 8
New

Hourly Weather History & Observations

Time (MDT) Temp. Windchill Dew Point Humidity Pressure Visibility Wind Dir Wind Speed Gust Speed Precip Events Conditions
12:53 AM 39.0 °F - 35.1 °F 86% 30.12 in 10.0 mi Calm Calm - N/A   Clear
2:53 AM 37.9 °F - 36.0 °F 93% 30.13 in 10.0 mi Calm Calm - N/A   Scattered Clouds
3:53 AM 34.0 °F 31.0 °F 30.9 °F 89% 30.15 in 10.0 mi NNW 3.5 mph - N/A   Clear
4:53 AM 33.1 °F - 30.9 °F 92% 30.17 in 10.0 mi Calm Calm - N/A   Clear
7:53 AM 42.1 °F - 37.0 °F 82% 30.19 in 10.0 mi Calm Calm - N/A   Clear
8:53 AM 48.9 °F - 37.9 °F 66% 30.17 in 10.0 mi Calm Calm - N/A   Clear
9:53 AM 54.0 °F - 36.0 °F 51% 30.17 in 10.0 mi North 8.1 mph - N/A   Clear
11:53 AM 60.1 °F - 30.9 °F 33% 30.16 in 10.0 mi Calm Calm - N/A   Scattered Clouds
12:53 PM 61.0 °F - 24.1 °F 24% 30.15 in 10.0 mi NE 12.7 mph 20.7 mph N/A   Scattered Clouds
1:53 PM 64.9 °F - 23.0 °F 20% 30.14 in 10.0 mi NNW 9.2 mph 24.2 mph N/A   Mostly Cloudy
2:29 PM 64.4 °F - 26.6 °F 24% 30.30 in 10.0 mi NE 17.3 mph 24.2 mph 0.00 in Rain Light Rain
2:53 PM 64.0 °F - 25.0 °F 23% 30.14 in 10.0 mi Variable 4.6 mph - 0.00 in   Mostly Cloudy
3:53 PM 64.9 °F - 24.1 °F 21% 30.14 in 10.0 mi NE 12.7 mph 20.7 mph N/A   Overcast
4:53 PM 64.0 °F - 28.0 °F 26% 30.16 in 10.0 mi NNE 25.3 mph 28.8 mph 0.00 in   Mostly Cloudy
5:53 PM 61.0 °F - 26.1 °F 26% 30.18 in 10.0 mi North 9.2 mph - N/A   Clear
6:53 PM 61.0 °F - 24.1 °F 24% 30.17 in 10.0 mi NNE 10.4 mph 19.6 mph N/A   Partly Cloudy
7:53 PM 57.0 °F - 25.0 °F 29% 30.18 in 10.0 mi NE 6.9 mph - N/A   Clear
8:53 PM 51.1 °F - 26.1 °F 38% 30.20 in 10.0 mi North 8.1 mph - N/A   Mostly Cloudy
9:53 PM 50.0 °F - 30.0 °F 46% 30.22 in 10.0 mi North 13.8 mph - N/A   Clear
10:53 PM 48.9 °F - 32.0 °F 52% 30.23 in 10.0 mi North 6.9 mph - N/A   Mostly Cloudy
11:53 PM 46.0 °F - 32.0 °F 58% 30.25 in 10.0 mi Calm Calm - N/A   Partly Cloudy